Date String (YYYY-MM-DD hh:mm:ss) UTC,Instrument flags,absolute air pressure of the measurement (hPa),sample flow rate (lpm),inlet stack bypass flow (lpm),air temperature of the measurement (°C),ambient temperature measured by the external sensor (°C),aerosol sample conditioner tube jacket temperature (°C),OPC LED temperature (°C),internal box temperature (°C),relative humidity of the measurement (%),span deviation,mass concentration of particles derived from Lorenz-Mie calculation of OPC scattering (μg/m³),mass concentration of particles derived from Lorenz-Mie calculation of OPC scattering (μg/m³),mass concentration of particles derived from Lorenz-Mie calculation of OPC scattering (μg/m³)
DateTimeUTC,F1_M11,P_M11,Q1_M11,Q2_M11,T1_M11,T2_M11,T3_M11,T4_M11,T5_M11,U1_M11,ZSPAN_M11,X0_M11,X2_M11,X1_M11
2024-04-17 02:00:00,SystemResetWarning,0824.0,5.00,000.00,025.6,025.0,000.0,033.9,027.5,013.3,0000.0,0006.55,0002.83,0001.84
2024-04-17 02:01:00,SystemResetWarning,0824.0,4.98,000.00,025.7,025.0,000.0,033.9,027.6,013.3,0000.0,0007.50,0002.83,0001.86
2024-04-17 02:02:00,SystemResetWarning,0824.0,5.00,000.00,025.7,025.1,000.0,033.9,027.6,013.2,0000.0,0008.60,0002.88,0001.87
2024-04-17 02:03:00,SystemResetWarning,0824.0,5.00,000.00,025.7,025.1,000.0,033.9,027.7,013.2,0000.0,0008.17,0002.83,0001.87
2024-04-17 02:04:00,SystemResetWarning,0824.0,5.01,000.00,025.8,025.1,000.0,034.0,027.7,013.2,0000.0,0008.16,0002.80,0001.87
2024-04-17 02:05:00,SystemResetWarning,0824.0,5.00,000.00,025.8,025.2,000.0,034.0,027.7,013.2,0000.0,0008.26,0002.86,0001.87
2024-04-17 02:06:00,SystemResetWarning,0824.0,5.00,000.00,025.8,025.2,000.0,034.0,027.8,013.2,0000.0,0008.68,0002.83,0001.87
2024-04-17 02:07:00,SystemResetWarning,0824.1,5.00,000.00,025.8,025.2,000.0,034.0,027.8,013.1,0000.0,0008.63,0002.82,0001.87
2024-04-17 02:08:00,SystemResetWarning,0824.1,5.01,000.00,025.9,025.3,000.0,034.1,027.8,013.1,0000.0,0008.56,0002.89,0001.88
2024-04-17 02:09:00,SystemResetWarning,0824.1,4.99,000.00,025.9,025.3,000.0,034.1,027.8,013.1,0000.0,0008.68,0002.93,0001.89
2024-04-17 02:10:00,SystemResetWarning,0824.1,5.00,000.00,025.9,025.3,000.0,034.1,027.9,013.0,0000.0,0008.76,0002.91,0001.90
2024-04-17 02:11:00,SystemResetWarning,0824.3,5.00,000.00,026.0,025.4,000.0,034.2,027.9,013.0,0000.0,0008.79,0002.91,0001.90
2024-04-17 02:12:00,SystemResetWarning,0824.3,5.01,000.00,026.0,025.4,000.0,034.2,027.9,013.0,0000.0,0008.27,0002.89,0001.90
2024-04-17 02:13:00,SystemResetWarning,0824.3,5.00,000.00,026.0,025.4,000.0,034.2,027.9,012.9,0000.0,0006.91,0002.88,0001.91
2024-04-17 02:14:00,SystemResetWarning,0824.3,5.00,000.00,026.0,025.5,000.0,034.2,028.0,012.9,0000.0,0006.80,0002.95,0001.92
2024-04-17 02:15:00,SystemResetWarning,0824.3,5.00,000.00,026.1,025.5,000.0,034.3,028.0,012.8,0000.0,0006.77,0002.97,0001.93
2024-04-17 02:16:00,SystemResetWarning,0824.3,5.00,000.00,026.1,025.5,000.0,034.3,028.0,012.8,0000.0,0006.61,0002.94,0001.94
2024-04-17 02:17:00,SystemResetWarning,0824.3,5.00,000.00,026.1,025.5,000.0,034.3,028.0,012.8,0000.0,0005.85,0002.98,0001.97
2024-04-17 02:18:00,SystemResetWarning,0824.3,5.00,000.00,026.1,025.5,000.0,034.3,028.0,012.8,0000.0,0006.25,0003.01,0001.98
2024-04-17 02:19:00,SystemResetWarning,0824.4,5.00,000.00,026.1,025.5,000.0,034.4,028.0,012.9,0000.0,0006.52,0003.02,0001.97
2024-04-17 02:20:00,SystemResetWarning,0824.4,5.00,000.00,026.2,025.5,000.0,034.4,028.0,012.8,0000.0,0006.25,0003.05,0001.98
2024-04-17 02:21:00,SystemResetWarning,0824.4,5.00,000.00,026.2,025.6,000.0,034.4,028.1,012.7,0000.0,0006.38,0003.08,0001.99
2024-04-17 02:22:00,SystemResetWarning,0824.4,4.99,000.00,026.1,024.8,000.0,034.5,027.6,012.8,0000.0,0006.28,0003.06,0002.01
2024-04-17 02:23:00,SystemResetWarning,0824.4,5.02,000.00,025.7,022.4,000.0,034.5,026.3,013.1,0000.0,0006.21,0003.07,0002.01
2024-04-17 02:24:00,SystemResetWarning,0824.4,5.01,000.00,025.3,022.1,000.0,034.4,025.9,013.4,0000.0,0006.33,0003.10,0002.02
2024-04-17 02:25:00,SystemResetWarning,0824.4,5.00,000.00,025.1,022.4,000.0,034.2,026.0,013.5,0000.0,0006.34,0003.08,0002.03
2024-04-17 02:26:00,SystemResetWarning,0824.5,5.00,000.00,025.1,022.8,000.0,034.1,026.4,013.6,0000.0,0006.19,0003.03,0002.03
2024-04-17 02:27:00,SystemResetWarning,0824.5,5.01,000.00,025.2,023.1,000.0,034.0,026.7,013.6,0000.0,0006.22,0003.04,0002.04
2024-04-17 02:28:00,SystemResetWarning,0824.5,5.00,000.00,025.2,023.4,000.0,034.0,026.8,013.6,0000.0,0006.35,0003.05,0002.03
2024-04-17 02:29:00,SystemResetWarning,0824.6,5.00,000.00,025.2,023.7,000.0,033.9,027.0,013.6,0000.0,0007.36,0003.09,0002.03
2024-04-17 02:30:00,SystemResetWarning,0824.7,4.99,000.00,025.3,024.0,000.0,033.9,027.1,013.6,0000.0,0007.21,0003.04,0002.04
2024-04-17 02:31:00,SystemResetWarning,0824.7,5.00,000.00,025.3,024.2,000.0,033.9,027.1,013.6,0000.0,0007.11,0003.00,0002.04
2024-04-17 02:32:00,SystemResetWarning,0824.7,5.00,000.00,025.4,024.3,000.0,033.9,027.2,013.4,0000.0,0006.93,0003.00,0002.04
2024-04-17 02:33:00,SystemResetWarning,0824.7,5.00,000.00,025.4,024.5,000.0,033.9,027.3,013.6,0000.0,0007.01,0003.03,0002.04
2024-04-17 02:34:00,SystemResetWarning,0824.7,5.00,000.00,025.4,024.6,000.0,033.9,027.4,013.6,0000.0,0007.15,0003.09,0002.05
2024-04-17 02:35:00,SystemResetWarning,0824.7,5.00,000.00,025.5,024.7,000.0,033.9,027.4,013.6,0000.0,0007.05,0003.04,0002.03
2024-04-17 02:36:00,SystemResetWarning,0824.7,5.01,000.00,025.5,024.8,000.0,033.9,027.4,013.3,0000.0,0006.74,0002.96,0002.02
2024-04-17 02:37:00,SystemResetWarning,0824.7,5.00,000.00,025.5,024.8,000.0,033.9,027.5,013.0,0000.0,0006.73,0002.95,0002.01
2024-04-17 02:38:00,SystemResetWarning,0824.7,4.99,000.00,025.6,024.9,000.0,033.9,027.5,013.2,0000.0,0006.63,0002.94,0002.00
2024-04-17 02:39:00,SystemResetWarning,0824.8,4.99,000.00,025.6,025.0,000.0,033.9,027.6,013.4,0000.0,0006.66,0002.96,0001.98
2024-04-17 02:40:00,SystemResetWarning,0824.8,5.00,000.00,025.7,025.0,000.0,033.9,027.6,013.4,0000.0,0005.51,0002.90,0001.97
2024-04-17 02:41:00,SystemResetWarning,0824.8,5.00,000.00,025.7,025.1,000.0,034.0,027.6,013.2,0000.0,0004.95,0002.90,0001.95
2024-04-17 02:42:00,SystemResetWarning,0824.8,5.00,000.00,025.7,025.1,000.0,034.0,027.7,013.0,0000.0,0005.71,0002.87,0001.92
2024-04-17 02:43:00,SystemResetWarning,0824.8,5.01,000.00,025.8,025.2,000.0,034.0,027.7,013.0,0000.0,0006.23,0002.86,0001.92
2024-04-17 02:44:00,SystemResetWarning,0824.7,5.01,000.00,025.8,025.2,000.0,034.0,027.7,013.2,0000.0,0006.05,0002.85,0001.90
2024-04-17 02:45:00,SystemResetWarning,0824.8,4.99,000.00,025.8,025.2,000.0,034.1,027.8,013.2,0000.0,0006.07,0002.81,0001.88
2024-04-17 02:46:00,SystemResetWarning,0824.9,4.99,000.00,025.9,025.3,000.0,034.1,027.8,013.2,0000.0,0005.99,0002.76,0001.87
2024-04-17 02:47:00,SystemResetWarning,0824.9,5.00,000.00,025.9,025.3,000.0,034.1,027.8,013.2,0000.0,0006.42,0002.82,0001.88
2024-04-17 02:48:00,SystemResetWarning,0824.9,4.99,000.00,025.9,025.3,000.0,034.1,027.8,013.2,0000.0,0006.87,0002.85,0001.89
2024-04-17 02:49:00,SystemResetWarning,0824.9,5.00,000.00,025.9,025.3,000.0,034.2,027.9,013.1,0000.0,0006.93,0002.86,0001.89
2024-04-17 02:50:00,SystemResetWarning,0824.9,5.01,000.00,026.0,025.4,000.0,034.2,027.9,012.9,0000.0,0006.70,0002.78,0001.89
2024-04-17 02:51:00,SystemResetWarning,0824.9,5.01,000.00,026.0,025.4,000.0,034.2,027.9,012.8,0000.0,0006.72,0002.77,0001.90
2024-04-17 02:52:00,SystemResetWarning,0824.9,5.00,000.00,026.0,025.4,000.0,034.2,027.9,012.8,0000.0,0006.80,0002.79,0001.92
2024-04-17 02:53:00,SystemResetWarning,0824.9,4.99,000.00,026.0,025.5,000.0,034.3,027.9,012.8,0000.0,0006.82,0002.82,0001.93
2024-04-17 02:54:00,SystemResetWarning,0824.9,4.99,000.00,026.1,025.5,000.0,034.3,028.0,012.8,0000.0,0005.63,0002.83,0001.94
2024-04-17 02:55:00,SystemResetWarning,0824.9,5.01,000.00,026.1,025.5,000.0,034.3,028.0,012.7,0000.0,0005.54,0002.80,0001.95
2024-04-17 02:56:00,SystemResetWarning,0824.9,5.01,000.00,026.1,025.5,000.0,034.3,028.0,012.6,0000.0,0005.40,0002.80,0001.94
2024-04-17 02:57:00,SystemResetWarning,0825.0,5.01,000.00,026.1,025.6,000.0,034.4,028.0,012.7,0000.0,0005.43,0002.82,0001.95
2024-04-17 02:58:00,SystemResetWarning,0825.0,5.01,000.00,026.2,025.6,000.0,034.4,028.1,012.8,0000.0,0005.38,0002.85,0001.95
2024-04-17 02:59:00,SystemResetWarning,0825.0,4.98,000.00,026.2,025.6,000.0,034.4,028.1,012.8,0000.0,0004.82,0002.81,0001.95
